EA7JCM-13 Weather Reports


time (UTC)temp
C
wind
direction
speed
KPH
gust
KPH
rain 1hr
cm
rain 24hr
cm
rain mn
cm
humidity
%
barometer
mb
20260508123003 20 170 9.7 17.7 0.00 0.15 0.00 45 1007.7
20260508122002 20 179 11.3 17.7 0.00 0.15 0.00 45 1007.6
20260508121503 20 184 8.0 14.5 0.00 0.15 0.00 43 1007.4
20260508121003 20 229 6.4 12.9 0.00 0.15 0.00 45 1007.6
20260508120503 20 253 8.0 12.9 0.00 0.15 0.00 48 1007.8
20260508120003 19 234 6.4 12.9 0.00 0.15 0.00 52 1008.0
20260508115503 18 211 4.8 12.9 0.00 0.15 0.00 53 1007.7
20260508115003 18 211 6.4 12.9 0.00 0.15 0.00 52 1007.9
20260508114503 18 237 8.0 17.7 0.00 0.15 0.00 52 1008.0
20260508114004 18 238 6.4 17.7 0.00 0.15 0.00 54 1008.1
20260508113502 18 208 11.3 17.7 0.00 0.15 0.00 54 1008.3
20260508113003 17 211 8.0 17.7 0.00 0.15 0.00 55 1008.3
20260508112504 18 229 6.4 17.7 0.00 0.15 0.00 54 1008.3
20260508112003 18 224 4.8 12.9 0.00 0.15 0.00 56 1008.5
20260508111503 18 210 4.8 12.9 0.00 0.15 0.00 56 1008.5
20260508110503 17 210 6.4 11.3 0.00 0.15 0.00 59 1008.7
20260508110003 17 240 6.4 11.3 0.00 0.15 0.00 58 1008.5
20260508105503 17 233 3.2 17.7 0.00 0.15 0.00 59 1008.8
20260508105003 17 233 6.4 17.7 0.00 0.15 0.00 61 1008.9
20260508104503 17 236 6.4 12.9 0.00 0.15 0.00 63 1009.0
20260508104003 17 255 6.4 14.5 0.00 0.15 0.00 63 1009.0
20260508103503 17 254 6.4 14.5 0.00 0.15 0.00 63 1009.2
20260508103003 17 214 8.0 17.7 0.00 0.15 0.00 64 1009.1
20260508102003 16 242 6.4 20.9 0.00 0.15 0.00 63 1009.3
20260508101503 17 225 4.8 11.3 0.00 0.15 0.00 62 1009.1
20260508101003 16 216 6.4 11.3 0.00 0.15 0.00 65 1009.3
20260508100503 16 237 3.2 12.9 0.00 0.15 0.00 65 1009.2
20260508100004 16 241 4.8 12.9 0.00 0.15 0.00 67 1009.2
20260508095503 16 232 4.8 17.7 0.00 0.15 0.00 67 1009.4
20260508095003 15 236 6.4 17.7 0.00 0.15 0.00 67 1009.3
20260508094003 16 226 3.2 17.7 0.00 0.15 0.00 68 1009.3
20260508093503 15 238 9.7 17.7 0.00 0.15 0.00 68 1009.1
20260508093003 15 229 3.2 17.7 0.00 0.15 0.00 67 1009.0
20260508092503 15 244 6.4 17.7 0.00 0.15 0.00 68 1009.1
20260508092003 16 268 6.4 14.5 0.00 0.15 0.00 67 1009.0
20260508091503 16 262 3.2 12.9 0.00 0.15 0.00 67 1008.9
20260508091003 16 259 3.2 12.9 0.00 0.15 0.00 68 1008.9
20260508090503 15 252 3.2 11.3 0.00 0.15 0.00 69 1008.9
20260508090004 15 232 3.2 11.3 0.00 0.15 0.00 67 1009.0
20260508085503 15 229 4.8 11.3 0.00 0.15 0.00 68 1009.0
20260508085003 15 263 8.0 11.3 0.00 0.15 0.00 66 1008.6
20260508084003 17 11 1.6 6.4 0.00 0.15 0.00 62 1008.6
20260508083503 16 21 1.6 6.4 0.00 0.15 0.00 63 1008.4
20260508083003 16 11 1.6 6.4 0.00 0.15 0.00 64 1008.4
20260508082503 16 358 3.2 6.4 0.00 0.15 0.00 64 1008.5
20260508081503 16 318 1.6 6.4 0.00 0.15 0.00 65 1008.4
20260508081003 16 338 3.2 6.4 0.00 0.15 0.00 64 1008.3
20260508080004 16 354 3.2 6.4 0.00 0.15 0.00 66 1008.4
20260508075503 16 359 3.2 6.4 0.00 0.15 0.00 64 1008.6
20260508074503 16 359 1.6 3.2 0.00 0.15 0.00 66 1008.6
20260508074003 15 28 0.0 6.4 0.00 0.15 0.00 69 1008.5
20260508073503 15 19 3.2 6.4 0.00 0.15 0.00 69 1008.5
20260508073003 15 351 3.2 3.2 0.00 0.15 0.00 68 1008.6
20260508072503 15 342 0.0 3.2 0.00 0.15 0.00 67 1008.6
20260508072003 15 336 1.6 6.4 0.00 0.15 0.00 68 1008.9
20260508071503 15 341 1.6 6.4 0.00 0.15 0.00 68 1008.8
20260508070503 15 317 1.6 3.2 0.00 0.15 0.00 69 1008.7
20260508070003 15 318 1.6 3.2 0.00 0.15 0.00 68 1008.6
20260508065503 14 280 1.6 3.2 0.00 0.15 0.00 70 1008.5
20260508065003 13 254 0.0 3.2 0.00 0.15 0.00 72 1008.6
20260508064504 13 274 0.0 3.2 0.00 0.15 0.00 74 1008.4
20260508064003 12 282 3.2 6.4 0.00 0.15 0.00 75 1008.3
20260508063003 12 312 3.2 6.4 0.00 0.15 0.00 75 1008.1
20260508062503 12 337 3.2 6.4 0.00 0.15 0.00 73 1007.8
20260508062003 13 359 3.2 6.4 0.00 0.15 0.00 71 1007.7
20260508061503 12 10 1.6 6.4 0.00 0.15 0.00 71 1007.4
20260508061003 12 17 1.6 9.7 0.00 0.15 0.00 71 1007.3
20260508060503 13 38 1.6 9.7 0.00 0.15 0.00 68 1007.2
20260508060003 13 44 3.2 9.7 0.00 0.15 0.00 65 1007.4
20260508055503 13 43 3.2 9.7 0.00 0.15 0.00 66 1007.3
20260508055004 13 67 3.2 9.7 0.00 0.15 0.00 68 1007.6
20260508054503 12 69 1.6 9.7 0.00 0.15 0.00 69 1007.8
20260508054003 12 53 1.6 6.4 0.00 0.15 0.00 75 1007.6
20260508053504 12 50 3.2 3.2 0.00 0.15 0.00 76 1007.9
20260508052503 11 112 0.0 3.2 0.00 0.15 0.00 78 1007.4
20260508052003 11 164 0.0 3.2 0.00 0.15 0.00 78 1007.9
20260508051503 11 189 0.0 6.4 0.00 0.15 0.00 78 1007.8
20260508051003 12 206 3.2 6.4 0.00 0.15 0.00 76 1007.7
20260508050003 12 219 3.2 6.4 0.00 0.15 0.00 75 1007.9
20260508045503 12 203 3.2 6.4 0.00 0.15 0.00 74 1007.8
20260508045004 12 203 3.2 6.4 0.00 0.15 0.00 74 1008.0
20260508044503 12 204 4.8 6.4 0.00 0.15 0.00 73 1007.9
20260508044003 12 208 1.6 6.4 0.00 0.15 0.00 74 1007.8
20260508043503 12 215 3.2 6.4 0.00 0.15 0.00 73 1007.8
20260508043003 12 235 3.2 3.2 0.00 0.15 0.00 73 1008.0
20260508042504 12 228 0.0 3.2 0.00 0.15 0.00 73 1007.8
20260508042003 12 196 0.0 3.2 0.00 0.15 0.00 73 1007.9
20260508041504 12 134 1.6 3.2 0.00 0.15 0.00 73 1007.7
20260508041004 12 142 3.2 6.4 0.00 0.15 0.00 73 1007.7
20260508040503 12 144 3.2 6.4 0.00 0.15 0.00 73 1007.7
20260508040004 12 102 0.0 6.4 0.00 0.15 0.00 74 1007.9
20260508035503 12 109 3.2 6.4 0.00 0.15 0.00 74 1007.8
20260508035003 12 150 1.6 6.4 0.00 0.15 0.00 74 1007.9
20260508034503 12 169 0.0 6.4 0.00 0.15 0.00 74 1007.8
20260508034004 12 151 1.6 3.2 0.00 0.15 0.00 74 1007.8
20260508033503 12 99 1.6 3.2 0.00 0.15 0.00 74 1008.0
20260508033003 12 98 0.0 3.2 0.00 0.15 0.00 74 1007.9
20260508032504 12 100 0.0 6.4 0.00 0.15 0.00 75 1007.7
20260508032003 12 95 0.0 6.4 0.00 0.15 0.00 76 1007.5
20260508031503 12 113 3.2 3.2 0.00 0.15 0.00 75 1007.8
20260508031003 12 122 0.0 3.2 0.00 0.15 0.00 75 1007.9
20260508030503 12 120 1.6 3.2 0.00 0.15 0.00 74 1007.6
20260508030004 12 115 0.0 6.4 0.00 0.15 0.00 74 1007.8
20260508025504 12 110 3.2 6.4 0.00 0.15 0.00 74 1007.4
20260508025003 12 121 1.6 3.2 0.00 0.15 0.00 73 1007.7
20260508024503 12 109 1.6 3.2 0.00 0.15 0.00 73 1007.6
20260508024004 12 112 0.0 3.2 0.00 0.15 0.00 74 1007.6
20260508023503 12 135 0.0 3.2 0.00 0.15 0.00 74 1007.6
20260508023004 12 148 0.0 6.4 0.00 0.15 0.00 73 1007.6
20260508022504 12 136 3.2 6.4 0.00 0.15 0.00 72 1007.4
20260508022004 12 102 1.6 6.4 0.00 0.15 0.00 73 1007.4
20260508021504 12 110 3.2 6.4 0.00 0.15 0.00 73 1007.5
20260508021003 12 130 1.6 3.2 0.00 0.15 0.00 73 1007.6
20260508020503 12 135 0.0 3.2 0.00 0.15 0.00 73 1007.4
20260508020004 12 135 0.0 3.2 0.00 0.15 0.00 73 1007.5
20260508015504 12 135 0.0 3.2 0.00 0.15 0.00 73 1007.3
20260508015004 12 135 0.0 3.2 0.00 0.15 0.00 73 1007.3
20260508014503 12 135 0.0 3.2 0.00 0.15 0.00 73 1007.2
20260508014003 12 135 1.6 3.2 0.00 0.15 0.00 73 1007.2
20260508013505 12 135 0.0 3.2 0.00 0.15 0.00 74 1007.2
20260508013003 12 135 1.6 3.2 0.00 0.15 0.00 74 1007.7
20260508012503 12 135 0.0 3.2 0.00 0.15 0.00 74 1007.4
20260508012003 12 135 0.0 3.2 0.00 0.15 0.00 71 1007.3
20260508011504 13 151 0.0 3.2 0.00 0.15 0.00 70 1007.4
20260508011003 13 158 0.0 3.2 0.00 0.15 0.00 70 1007.6
20260508010503 13 158 0.0 3.2 0.00 0.15 0.00 68 1007.7
20260508010004 13 155 0.0 3.2 0.00 0.15 0.00 68 1007.8
20260508005504 13 147 0.0 3.2 0.00 0.15 0.00 68 1007.8
20260508005004 13 139 0.0 6.4 0.00 0.15 0.00 68 1007.8
20260508004503 13 170 0.0 6.4 0.00 0.15 0.00 68 1007.9
20260508004003 13 188 3.2 6.4 0.00 0.15 0.00 68 1008.4
20260508003504 13 182 3.2 6.4 0.00 0.15 0.00 68 1008.2
20260508003005 13 169 1.6 6.4 0.00 0.15 0.00 68 1008.4
20260508002504 13 172 1.6 6.4 0.00 0.15 0.00 67 1008.5
20260508002004 13 176 3.2 6.4 0.00 0.15 0.00 67 1008.9
20260508001504 13 170 3.2 6.4 0.00 0.15 0.00 67 1008.8
20260508001003 13 157 1.6 6.4 0.00 0.15 0.00 68 1008.9
20260508000504 13 169 3.2 6.4 0.00 0.15 0.00 67 1008.8
20260508000004 13 192 3.2 6.4 0.00 0.15 0.00 67 1008.8
20260507235504 13 202 3.2 6.4 0.00 0.15 0.00 67 1008.6
20260507235003 13 192 3.2 9.7 0.00 0.15 0.00 67 1008.7
20260507234503 14 182 4.8 9.7 0.00 0.15 0.00 66 1008.5
20260507234003 14 179 3.2 6.4 0.00 0.15 0.00 65 1008.6
20260507233503 14 189 3.2 6.4 0.00 0.15 0.00 65 1008.7
20260507233004 14 212 3.2 6.4 0.00 0.15 0.00 65 1008.7
20260507232504 14 212 3.2 6.4 0.00 0.15 0.00 65 1008.8
20260507232003 14 194 3.2 9.7 0.00 0.15 0.00 65 1008.6
20260507231503 14 196 4.8 9.7 0.00 0.15 0.00 64 1008.7
20260507231004 15 198 3.2 6.4 0.00 0.15 0.00 64 1008.6
20260507230503 15 173 3.2 3.2 0.00 0.15 0.00 64 1008.5
20260507230004 15 183 1.6 3.2 0.00 0.15 0.00 63 1008.7
20260507225503 15 190 1.6 6.4 0.00 0.15 0.00 63 1008.8
20260507225003 15 182 3.2 6.4 0.00 0.15 0.00 63 1008.6
20260507224504 15 175 3.2 6.4 0.00 0.15 0.00 62 1008.4
20260507224004 15 169 3.2 6.4 0.00 0.15 0.00 62 1008.6
20260507223503 15 143 3.2 6.4 0.00 0.15 0.00 62 1008.5
20260507223003 15 147 1.6 6.4 0.00 0.15 0.00 62 1008.6
20260507222503 15 153 1.6 6.4 0.00 0.15 0.00 62 1008.8
20260507222004 15 174 1.6 11.3 0.00 0.15 0.00 62 1008.7
20260507221503 15 184 3.2 12.9 0.00 0.15 0.00 62 1008.8
20260507221004 15 172 3.2 12.9 0.00 0.15 0.00 62 1008.9
20260507220503 15 171 3.2 9.7 0.00 0.15 0.00 62 1009.0
20260507220007 15 181 3.2 9.7 0.00 0.15 0.00 62 1009.0
20260507215504 15 175 3.2 9.7 0.00 0.15 0.18 61 1009.0
20260507215003 15 163 3.2 6.4 0.00 0.15 0.18 62 1009.0
20260507214504 15 171 1.6 9.7 0.00 0.15 0.18 62 1009.1
20260507214004 15 181 3.2 11.3 0.00 0.15 0.18 61 1009.1
20260507213503 15 174 6.4 11.3 0.00 0.15 0.18 60 1008.9
20260507213004 16 162 3.2 6.4 0.00 0.15 0.18 61 1009.0
20260507212504 16 183 3.2 6.4 0.00 0.15 0.18 61 1008.8
20260507212003 16 189 4.8 9.7 0.00 0.15 0.18 61 1008.7
20260507211502 16 177 3.2 11.3 0.00 0.15 0.18 61 1009.0
20260507211002 16 166 4.8 11.3 0.00 0.15 0.18 61 1008.9
20260507210503 16 148 3.2 6.4 0.00 0.15 0.18 61 1008.8
20260507210002 16 163 1.6 6.4 0.00 0.15 0.18 62 1008.5
20260507205503 16 176 3.2 6.4 0.00 0.15 0.18 61 1008.6
20260507205003 16 176 3.2 9.7 0.00 0.15 0.18 61 1008.5
20260507204502 16 176 3.2 9.7 0.00 0.15 0.18 60 1008.5
20260507204002 16 169 4.8 9.7 0.00 0.15 0.18 60 1008.2
20260507203502 16 171 6.4 12.9 0.00 0.15 0.18 59 1008.1
20260507203002 16 188 1.6 14.5 0.00 0.15 0.18 60 1008.1
20260507202503 16 189 4.8 14.5 0.00 0.15 0.18 59 1008.0
20260507202004 16 172 3.2 9.7 0.00 0.15 0.18 60 1008.2
20260507201502 16 177 4.8 12.9 0.00 0.15 0.18 60 1008.0
20260507201003 16 190 4.8 12.9 0.00 0.15 0.18 59 1008.0
20260507200503 16 190 4.8 9.7 0.00 0.15 0.18 60 1007.8
20260507200002 16 178 6.4 9.7 0.00 0.15 0.18 59 1007.9
20260507195502 17 177 3.2 11.3 0.00 0.15 0.18 59 1007.8
20260507195003 17 170 6.4 11.3 0.00 0.15 0.18 57 1007.6
20260507194502 17 166 3.2 11.3 0.00 0.15 0.18 58 1007.6
20260507194002 17 174 6.4 11.3 0.00 0.15 0.18 58 1007.3
20260507193503 17 193 4.8 12.9 0.00 0.15 0.18 58 1007.4
20260507193002 17 202 6.4 12.9 0.00 0.15 0.18 58 1007.5
20260507192502 17 198 6.4 12.9 0.00 0.15 0.18 59 1007.3
20260507192002 17 194 4.8 11.3 0.00 0.15 0.18 60 1007.0
20260507191502 17 209 4.8 6.4 0.00 0.15 0.18 60 1007.0
20260507191004 17 261 3.2 6.4 0.00 0.15 0.18 61 1006.9
20260507190503 16 337 0.0 3.2 0.00 0.15 0.18 62 1006.8
20260507190003 16 344 0.0 3.2 0.00 0.15 0.18 66 1006.8
20260507185502 16 37 0.0 3.2 0.00 0.15 0.18 64 1006.7
20260507185003 16 32 0.0 3.2 0.00 0.15 0.18 64 1006.7
20260507184503 16 356 0.0 6.4 0.00 0.15 0.18 64 1006.5
20260507184002 17 8 1.6 6.4 0.00 0.15 0.18 63 1006.4
20260507183502 17 355 3.2 6.4 0.00 0.15 0.18 62 1006.5
20260507183003 17 328 0.0 3.2 0.00 0.15 0.18 60 1006.3
20260507182502 17 324 0.0 3.2 0.00 0.15 0.18 59 1006.4
20260507182003 18 292 0.0 3.2 0.00 0.15 0.18 54 1006.4
20260507181502 18 271 0.0 3.2 0.00 0.15 0.18 52 1006.3
20260507181003 19 263 1.6 3.2 0.00 0.15 0.18 51 1006.1
20260507180502 19 321 1.6 3.2 0.00 0.15 0.18 47 1006.0
20260507180004 20 15 0.0 3.2 0.00 0.15 0.18 47 1006.1
20260507175502 20 326 0.0 3.2 0.00 0.15 0.18 53 1006.2
20260507175002 20 333 0.0 3.2 0.00 0.15 0.18 53 1006.2
20260507174503 20 349 0.0 3.2 0.00 0.15 0.18 53 1006.1
20260507174002 19 14 0.0 3.2 0.00 0.15 0.18 54 1005.9
20260507173503 18 7 1.6 3.2 0.00 0.15 0.18 53 1006.0
20260507173002 19 355 1.6 3.2 0.00 0.15 0.18 57 1006.2
20260507172503 20 47 1.6 6.4 0.00 0.15 0.18 59 1006.3
20260507172003 19 65 3.2 9.7 0.15 0.15 0.18 51 1006.0
20260507171503 18 64 3.2 9.7 0.15 0.15 0.18 52 1006.2
20260507171002 18 86 3.2 11.3 0.15 0.15 0.18 57 1006.0
20260507170503 18 85 4.8 12.9 0.15 0.15 0.15 61 1006.2
20260507170003 17 56 6.4 12.9 0.15 0.15 0.15 64 1006.0
20260507165503 17 39 1.6 6.4 0.15 0.15 0.15 68 1006.1
20260507165003 16 21 3.2 6.4 0.15 0.15 0.15 71 1005.9
20260507164502 16 358 0.0 6.4 0.15 0.15 0.15 76 1006.0
20260507164002 15 1 1.6 6.4 0.15 0.15 0.15 70 1006.0
20260507163503 15 45 3.2 9.7 0.15 0.15 0.15 66 1006.2
20260507163002 15 223 3.2 22.5 0.15 0.15 0.15 60 1006.1
20260507162502 15 236 3.2 22.5 0.15 0.15 0.15 62 1006.2
20260507162003 15 231 12.9 22.5 0.00 0.00 0.00 66 1006.3
20260507161503 16 232 9.7 22.5 0.00 0.00 0.00 66 1006.2
20260507161002 16 226 17.7 22.5 0.00 0.00 0.00 63 1006.2
20260507160503 17 217 12.9 24.1 0.00 0.00 0.00 59 1005.9
20260507160003 18 217 8.0 24.1 0.00 0.00 0.00 54 1005.5
20260507155503 18 204 12.9 24.1 0.00 0.00 0.00 51 1005.7
20260507155003 19 196 6.4 9.7 0.00 0.00 0.00 46 1005.4
20260507154502 19 199 4.8 12.9 0.00 0.00 0.00 46 1005.4
20260507154003 19 126 6.4 17.7 0.00 0.00 0.00 45 1005.3
20260507153502 20 115 6.4 17.7 0.00 0.00 0.00 45 1005.4
20260507153003 20 144 6.4 17.7 0.00 0.00 0.00 43 1005.2
20260507152503 21 99 3.2 17.7 0.00 0.00 0.00 44 1005.4
20260507152003 21 116 6.4 12.9 0.00 0.00 0.00 43 1005.6
20260507151503 21 157 4.8 12.9 0.00 0.00 0.00 43 1005.5
20260507151002 21 138 6.4 12.9 0.00 0.00 0.00 42 1005.8
20260507150504 21 110 3.2 17.7 0.00 0.00 0.00 42 1005.9
20260507150002 21 97 3.2 17.7 0.00 0.00 0.00 42 1006.0
20260507145503 21 123 6.4 12.9 0.00 0.00 0.00 41 1006.1
20260507145003 21 139 3.2 12.9 0.00 0.00 0.00 40 1005.9
20260507144502 20 168 8.0 14.5 0.00 0.00 0.00 42 1006.0
20260507144003 20 185 6.4 14.5 0.00 0.00 0.00 45 1006.1
20260507143503 19 182 9.7 17.7 0.00 0.00 0.00 45 1006.2
20260507143003 20 176 6.4 17.7 0.00 0.00 0.00 45 1006.2
20260507142503 20 169 6.4 17.7 0.00 0.00 0.00 45 1006.3
20260507142003 19 136 4.8 12.9 0.00 0.00 0.00 46 1006.6
20260507141502 19 142 3.2 12.9 0.00 0.00 0.00 45 1006.6
20260507141004 19 196 4.8 12.9 0.00 0.00 0.00 45 1006.6
20260507140503 19 198 4.8 17.7 0.00 0.00 0.00 45 1006.5
20260507140003 20 170 3.2 17.7 0.00 0.00 0.00 43 1006.4
20260507135503 20 118 11.3 17.7 0.00 0.00 0.00 43 1006.5
20260507135004 20 132 4.8 14.5 0.00 0.00 0.00 44 1006.6
20260507134502 20 169 4.8 14.5 0.00 0.00 0.00 42 1006.7
20260507134003 20 164 6.4 17.7 0.00 0.00 0.00 44 1006.8
20260507133503 20 185 0.0 17.7 0.00 0.00 0.00 45 1006.9
20260507133002 20 191 8.0 17.7 0.00 0.00 0.00 46 1006.7
20260507132503 20 188 8.0 17.7 0.00 0.00 0.00 46 1006.6
20260507132003 20 199 3.2 17.7 0.00 0.00 0.00 45 1006.8
20260507131503 19 196 4.8 17.7 0.00 0.00 0.00 48 1006.5
20260507131003 18 202 6.4 17.7 0.00 0.00 0.00 48 1006.5
20260507130502 18 209 12.9 17.7 0.00 0.00 0.00 47 1006.6
20260507130004 18 199 11.3 17.7 0.00 0.00 0.00 47 1006.7
20260507125502 18 201 11.3 14.5 0.00 0.00 0.00 46 1006.7
20260507125003 18 235 6.4 11.3 0.00 0.00 0.00 45 1006.7
20260507124503 19 259 3.2 9.7 0.00 0.00 0.00 44 1006.8
20260507124003 19 275 3.2 9.7 0.00 0.00 0.00 42 1006.7
20260507123503 20 317 3.2 6.4 0.00 0.00 0.00 41 1006.9